Regional Weather Roundup
Issued by NWS

Home | Current Version | Previous Version | Graphics & Text | Print | Product List | Glossary Off
Versions: 1 2 3 4 5 6 7 8 9 10 11 12 13 14 15 16 17 18 19 20 21 22 23 24 25 26 27 28 29 30 31 32 33 34 35 36 37 38 39 40 41 42 43 44 45 46 47 48 49 50

000
ASUS43 KTOP 270259
RWRKS

WEATHER ROUNDUP FOR KANSAS
NATIONAL WEATHER SERVICE GOODLAND KS
1000 PM CDT THU MAY 26 2016

NOTE:  "FAIR" INDICATES FEW OR NO CLOUDS BELOW 12,000 FEET WITH NO
SIGNIFICANT WEATHER AND/OR OBSTRUCTIONS TO VISIBILITY.

KSZ001>006-013>018-027>032-041>047-270400-
NORTHWEST KANSAS

CITY           SKY/WX    TMP DP  RH WIND       PRES   REMARKS
HAYS           CLOUDY    36 N/A N/A E14       29.62F WCI  27
HILL CITY      TSTM      58  54  86 W20G41    29.79R FOG
RUSSELL        CLOUDY    62  55  77 NE13      29.65F
$$

KSZ061>065-074>080-084>089-270400-
SOUTHWEST KANSAS

CITY           SKY/WX    TMP DP  RH WIND       PRES   REMARKS
DODGE CITY     CLOUDY    65  56  72 S12       29.61R
ELKHART          N/A     62  43  50 NW12        N/A
GARDEN CITY    PTCLDY    63  48  58 NW28G39   29.65R
GREAT BEND     CLOUDY    57  50  77 NE17      29.60F
LIBERAL        CLEAR     64  39  39 NW21G32   29.66R
$$

KSZ066>073-081>083-090>101-270400-
SOUTHEAST KANSAS

CITY           SKY/WX    TMP DP  RH WIND       PRES   REMARKS
CHANUTE        CLEAR     73  66  78 SE7       29.77R
COFFEYVILLE    CLEAR     72  66  81 SE10      29.74F
HUTCHINSON     CLOUDY    65  62  90 NE14G24   29.73R
MEDICINE LODGE   N/A     64  57  78 W10G44    29.72R
NEWTON         CLOUDY    63  57  82 E13G23    29.78R
PARSONS        CLEAR     73  67  81 SE6       29.77F
WICHITA INTL   MOCLDY    76  66  71 SE12      29.71R
WICHITA JABRA  CLOUDY    75  67  76 E8        29.73R
WINFIELD       CLEAR     75  63  66 S15G24    29.71R
$$

KSZ007>012-019>026-033>040-048>060-102>105-270400-
NORTHEAST KANSAS

CITY           SKY/WX    TMP DP  RH WIND       PRES   REMARKS
CONCORDIA      TSTM      61  59  93 W12       29.83R FOG
EMPORIA        HVY RAIN  61  61 100 NE21G32   29.83R FOG
LAWRENCE       LGT RAIN  62  61  96 NE10      29.91F
MANHATTAN      LGT RAIN  64  60  87 E18G35    29.75F
OLATHE IND     HVY RAIN  62  61  96 N18       29.91R FOG
OLATHE EXE     HVY RAIN  62  61  96 N12       29.92R FOG
SALINA         RAIN      60  57  89 NW22G31   29.81R FOG
TOPEKA BILLARD RAIN      63  61  93 E15       29.87R
TOPEKA FORBES  LGT RAIN  64  61  90 E15       29.86F
$$




USA.gov is the U.S. government's official web portal to all federal, state and local government web resources and services.